RH
63 64 66 70 72 75 79 77 85 73 73 68 70 64 59 53 50 47 43 41 40 40 37 31 31 34 35 33 35 44 60 70 73 82 92 94 93 94 95 91 88 83 86 82
61 62 62 59 62 65 65 68 67 66 66 66 60 55 54 52 49 45 39 37 36 33 29 30 31 31 32 30 30 35 50 68 71 78 90 94 96 98 98 96 89 84 82 81
72 63 61 60 70 68 62 60 64 68 71 61 63 59 52 50 46 38 37 36 37 36 35 35 34 34 32 31 34 34 44 63 72 74 88 95 97 98 98 96 96 89 84 83
79 68 69 68 64 68 71 71 75 75 71 67 61 56 43 33 35 36 39 38 37 37 35 35 35 35 35 35 35 34 41 58 70 71 85 95 98 98 98 97 96 90 87 86
84 78 66 70 64 63 67 80 77 76 70 61 53 41 26 41 40 39 39 38 37 37 35 34 35 36 37 37 36 36 41 56 69 71 84 96 98 98 98 98 96 89 88 91
78 88 79 67 65 72 71 80 75 75 65 53 45 46 42 43 39 35 35 36 36 36 38 41 43 46 44 41 37 38 40 51 67 71 86 96 98 98 98 98 92 94 92 90
81 86 69 67 70 76 82 84 74 65 62 49 52 54 46 41 38 39 39 39 41 44 49 55 56 55 55 50 41 41 40 46 64 73 89 97 98 98 98 98 97 93 92 92
80 90 86 73 74 78 82 82 74 59 51 54 56 46 41 40 39 39 42 45 51 54 59 60 58 58 59 56 46 44 42 44 64 75 94 98 98 98 98 98 96 92 92 93
84 87 83 82 82 84 81 68 57 53 60 58 52 44 41 40 41 45 49 54 59 61 59 59 59 61 61 56 50 46 43 46 67 76 97 98 98 98 98 98 96 93 93 94
79 77 68 72 78 82 67 62 63 64 60 56 49 44 42 43 46 50 57 62 64 64 60 57 56 59 63 59 52 48 44 49 69 80 96 98 98 98 98 98 97 96 95 95
70 65 68 74 73 65 65 68 69 61 59 53 47 44 45 47 51 57 64 68 69 65 61 58 57 56 61 61 54 48 47 53 70 83 96 98 98 98 98 98 98 98 96 95
70 76 70 65 67 71 73 70 63 62 51 45 46 47 50 52 56 65 71 73 71 68 65 62 59 56 60 61 58 50 50 55 71 85 97 98 98 98 98 98 98 98 97 97
63 64 66 71 77 77 71 65 64 56 50 47 47 52 56 57 63 72 78 79 75 70 68 64 61 58 65 63 58 53 54 58 71 88 98 98 98 98 98 98 98 97 98 97
71 75 78 82 79 72 69 66 55 51 50 51 55 58 59 61 67 75 78 80 79 75 74 71 67 66 69 64 58 58 59 60 73 91 98 97 98 98 98 98 97 97 97 97
83 85 85 79 72 73 67 54 50 49 49 53 59 61 63 67 71 76 81 85 84 81 82 83 80 78 77 67 62 63 62 60 74 96 98 97 98 97 97 97 98 97 97 97
87 84 79 76 76 66 54 51 50 51 55 60 62 64 67 73 75 78 84 88 84 87 92 97 97 90 83 72 69 68 66 63 77 97 98 98 97 97 97 97 97 97 97 97
82 79 80 76 65 55 51 47 49 53 59 64 68 69 73 75 77 82 88 91 90 91 95 97 97 92 86 80 76 72 69 64 83 98 98 98 97 97 97 97 97 97 97 97
87 83 73 63 52 46 43 45 48 52 63 69 74 74 79 75 77 84 89 90 91 92 94 97 97 95 92 88 82 77 73 69 91 98 98 98 97 98 97 97 97 97 97 97
77 69 62 53 48 42 43 45 48 51 65 75 78 82 83 79 80 84 88 89 89 91 93 95 98 97 93 89 83 79 77 78 96 98 97 97 97 97 97 97 97 97 97 97
67 60 54 50 45 41 44 48 49 52 66 78 85 89 88 85 83 83 84 86 85 90 94 95 96 97 94 90 86 83 81 87 98 98 97 97 97 97 97 97 97 97 97 97
59 55 51 46 41 44 48 52 52 55 64 81 90 93 93 88 87 89 88 86 87 87 93 96 96 96 96 93 90 87 83 92 98 98 97 97 97 97 97 97 97 97 97 97
52 49 47 43 44 48 52 56 58 58 62 80 92 95 95 90 88 88 93 96 92 89 91 97 97 96 96 94 91 88 88 94 98 97 98 97 97 97 97 97 97 97 97 98
46 45 46 49 51 55 55 60 62 63 66 77 86 94 95 93 92 90 87 90 93 94 94 94 97 97 97 96 92 89 89 95 98 97 98 98 97 97 97 97 97 97 97 97
53 55 58 59 59 60 62 64 67 67 72 74 79 86 96 95 94 94 94 94 95 95 94 96 97 98 97 95 93 90 91 96 98 97 98 98 98 98 98 97 97 97 98 98
62 65 67 67 67 67 70 71 71 72 76 71 76 76 90 93 95 96 97 96 98 98 97 97 98 98 98 96 93 91 93 96 98 97 98 98 98 98 98 98 98 97 97 98
72 75 76 78 78 77 79 78 77 79 77 70 73 73 75 88 89 91 97 98 98 98 98 98 97 98 97 96 95 93 95 96 97 97 98 98 98 98 98 98 98 98 98 97
81 85 86 88 89 87 86 87 85 82 78 74 73 73 76 77 83 84 89 94 98 98 98 98 98 98 98 98 96 96 98 97 97 98 98 98 98 97 98 98 98 98 98 97